{"data":{"norad_id":60575,"intl_designator":"2024-149DM","name":"HAWK-10C","alt_names":[],"object_type":"PAYLOAD","status":"ACTIVE","operator":null,"country":"US","launch_date":"2024-08-16","launch_site_code":"AFWTR","launch_vehicle":null,"mission":null,"orbit_class":"UNKNOWN","rcs_meters":null,"size_class":null,"mass_kg":null,"dimensions":null,"purposes":[],"wikipedia_slug":null,"has_3d_model":false,"image_url":null,"decayed_at":null,"tle_current":{"epoch":"2026-09-22T17:10:36.284736Z","epoch_age_seconds":97688,"freshness":"FRESH","line1":"1 60575U 24149DM  26265.71569774  .00000328  00000+0  33693-4 0  9990","line2":"2 60575  97.6657 338.4193 0004656  90.4609 269.7146 14.96743695114572","mean_motion":14.96743695,"eccentricity":0.0004656,"inclination_deg":97.6657,"raan_deg":338.4193,"arg_perigee_deg":90.4609,"mean_anomaly_deg":269.7146,"bstar":3.3693e-5,"rev_number":11457,"period_min":96.208856921225,"perigee_km":573.72744449866,"apogee_km":580.20403617046,"semimajor_km":6955.1027403346,"source":"CELESTRAK","updated_at":"2026-09-23T09:00:20.703309Z"}}}